Tiempo cada hora Mushkat

Hoy, 29 Octubre, Jueves

Tiempo Temperatura Precipitaciones Viento Presión Humedad
00:00 +10°C° 0 mm 4 mps 747 mmHg 91%
01:00 +10°C° 0 mm 4 mps 747 mmHg 91%
02:00 +10°C° 0 mm 4 mps 746 mmHg 92%
03:00 +10°C° 0 mm 4 mps 746 mmHg 92%
04:00 +10°C° 0 mm 4 mps 746 mmHg 92%
05:00 +10°C° 0 mm 4 mps 746 mmHg 92%
06:00 +10°C° 0 mm 4 mps 746 mmHg 92%
07:00 +10°C° 0 mm 4 mps 746 mmHg 91%
08:00 +10°C° 0 mm 4 mps 746 mmHg 91%
09:00 +10°C° 0 mm 4 mps 746 mmHg 89%
10:00 +10°C° 0 mm 4 mps 746 mmHg 88%
11:00 +11°C° 0 mm 4 mps 746 mmHg 86%
12:00 +11°C° 0.2 mm 4 mps 745 mmHg 85%
13:00 +11°C° 0.2 mm 4 mps 745 mmHg 84%
14:00 +12°C° 0.2 mm 4 mps 745 mmHg 83%
15:00 +11°C° 0.4 mm 3 mps 745 mmHg 85%
16:00 +11°C° 0.4 mm 3 mps 744 mmHg 88%
17:00 +12°C° 0.4 mm 2 mps 744 mmHg 90%
18:00 +12°C° 0.3 mm 2 mps 744 mmHg 90%
19:00 +10°C° 0.3 mm 2 mps 744 mmHg 91%
20:00 +10°C° 0.3 mm 2 mps 744 mmHg 92%
21:00 +10°C° 0.1 mm 2 mps 744 mmHg 93%
22:00 +10°C° 0.1 mm 2 mps 744 mmHg 94%
23:00 +9°C° 0.1 mm 2 mps 744 mmHg 94%

Mañana, 30 Octubre, Viernes

Tiempo Temperatura Precipitaciones Viento Presión Humedad
00:00 +9°C° 0 mm 2 mps 744 mmHg 95%
01:00 +9°C° 0 mm 2 mps 744 mmHg 95%
02:00 +8°C° 0 mm 2 mps 744 mmHg 95%
03:00 +8°C° 0 mm 2 mps 744 mmHg 95%
04:00 +8°C° 0 mm 2 mps 743 mmHg 95%
05:00 +8°C° 0 mm 2 mps 743 mmHg 95%
06:00 +8°C° 0 mm 2 mps 744 mmHg 95%
07:00 +8°C° 0 mm 2 mps 744 mmHg 94%
08:00 +8°C° 0 mm 2 mps 744 mmHg 94%
09:00 +8°C° 0.1 mm 2 mps 744 mmHg 93%
10:00 +9°C° 0.1 mm 2 mps 744 mmHg 91%
11:00 +9°C° 0.1 mm 2 mps 744 mmHg 90%
12:00 +9°C° 0.1 mm 3 mps 744 mmHg 87%
13:00 +9°C° 0.1 mm 3 mps 744 mmHg 85%
14:00 +10°C° 0.1 mm 3 mps 744 mmHg 82%
15:00 +9°C° 0 mm 3 mps 744 mmHg 84%
16:00 +8°C° 0 mm 2 mps 744 mmHg 85%
17:00 +7°C° 0 mm 2 mps 744 mmHg 86%
18:00 +7°C° 0.1 mm 2 mps 744 mmHg 88%
19:00 +7°C° 0.1 mm 2 mps 744 mmHg 89%
20:00 +7°C° 0.1 mm 1 mps 745 mmHg 90%
21:00 +8°C° 0.1 mm 1 mps 745 mmHg 90%
22:00 +8°C° 0.1 mm 1 mps 745 mmHg 90%
23:00 +8°C° 0.1 mm 1 mps 745 mmHg 90%

Pasado mañana, 31 Octubre, Sábado

Tiempo Temperatura Precipitaciones Viento Presión Humedad
00:00 +8°C° 0.1 mm 1 mps 745 mmHg 90%
01:00 +8°C° 0.1 mm 1 mps 745 mmHg 91%
02:00 +8°C° 0.1 mm 1 mps 745 mmHg 91%
03:00 +7°C° 0.1 mm 1 mps 746 mmHg 92%
04:00 +7°C° 0.1 mm 1 mps 746 mmHg 93%
05:00 +7°C° 0.1 mm 1 mps 746 mmHg 94%
06:00 +7°C° 0 mm 1 mps 747 mmHg 94%
07:00 +6°C° 0 mm 2 mps 747 mmHg 94%
08:00 +6°C° 0 mm 2 mps 748 mmHg 95%
09:00 +7°C° 0 mm 2 mps 749 mmHg 91%
10:00 +8°C° 0 mm 2 mps 749 mmHg 88%
11:00 +9°C° 0 mm 2 mps 750 mmHg 85%
12:00 +9°C° 0 mm 2 mps 750 mmHg 84%
13:00 +10°C° 0 mm 3 mps 751 mmHg 84%
14:00 +10°C° 0 mm 3 mps 751 mmHg 83%
15:00 +10°C° 0 mm 3 mps 751 mmHg 86%
16:00 +9°C° 0 mm 2 mps 751 mmHg 90%
17:00 +9°C° 0 mm 2 mps 752 mmHg 93%
18:00 +8°C° 0 mm 2 mps 752 mmHg 93%
19:00 +8°C° 0 mm 2 mps 753 mmHg 94%
20:00 +7°C° 0 mm 2 mps 753 mmHg 94%
21:00 +7°C° 0 mm 2 mps 753 mmHg 94%
22:00 +7°C° 0 mm 2 mps 754 mmHg 94%
23:00 +6°C° 0 mm 2 mps 754 mmHg 94%

1 Noviembre, Domingo

Tiempo Temperatura Precipitaciones Viento Presión Humedad
00:00 +6°C° 0 mm 2 mps 754 mmHg 95%
01:00 +6°C° 0 mm 2 mps 754 mmHg 95%
02:00 +7°C° 0 mm 1 mps 755 mmHg 95%
03:00 +7°C° 0 mm 1 mps 755 mmHg 95%
04:00 +7°C° 0 mm 1 mps 755 mmHg 95%
05:00 +7°C° 0 mm 1 mps 755 mmHg 95%
06:00 +7°C° 0 mm 1 mps 755 mmHg 94%
07:00 +7°C° 0 mm 1 mps 755 mmHg 94%
08:00 +7°C° 0 mm 1 mps 755 mmHg 93%
09:00 +8°C° 0 mm 1 mps 755 mmHg 90%
10:00 +8°C° 0 mm 2 mps 755 mmHg 87%
11:00 +9°C° 0 mm 2 mps 755 mmHg 84%
12:00 +9°C° 0 mm 2 mps 755 mmHg 80%
13:00 +10°C° 0 mm 2 mps 755 mmHg 77%
14:00 +10°C° 0 mm 2 mps 754 mmHg 74%
15:00 +9°C° 0 mm 2 mps 754 mmHg 77%
16:00 +8°C° 0 mm 2 mps 754 mmHg 81%
17:00 +7°C° 0 mm 2 mps 754 mmHg 84%
18:00 +7°C° 0 mm 2 mps 754 mmHg 87%
19:00 +6°C° 0 mm 2 mps 754 mmHg 89%
20:00 +5°C° 0 mm 2 mps 754 mmHg 92%
21:00 +5°C° 0 mm 2 mps 754 mmHg 92%
22:00 +5°C° 0 mm 2 mps 753 mmHg 93%
23:00 +4°C° 0 mm 2 mps 753 mmHg 93%

2 Noviembre, Lunes

Tiempo Temperatura Precipitaciones Viento Presión Humedad
00:00 +4°C° 0 mm 2 mps 753 mmHg 92%
01:00 +4°C° 0 mm 2 mps 753 mmHg 92%
02:00 +2°C° 0 mm 3 mps 753 mmHg 91%
03:00 +2°C° 0 mm 3 mps 753 mmHg 91%
04:00 +3°C° 0 mm 2 mps 753 mmHg 92%
05:00 +2°C° 0 mm 2 mps 753 mmHg 92%
06:00 +2°C° 0 mm 2 mps 753 mmHg 93%
07:00 +2°C° 0 mm 2 mps 753 mmHg 94%
08:00 +2°C° 0 mm 2 mps 753 mmHg 95%
09:00 +2°C° 0 mm 3 mps 753 mmHg 92%
10:00 +3°C° 0 mm 4 mps 753 mmHg 90%
11:00 +4°C° 0 mm 4 mps 753 mmHg 87%
12:00 +4°C° 0 mm 4 mps 753 mmHg 87%
13:00 +5°C° 0 mm 4 mps 753 mmHg 86%
14:00 +5°C° 0 mm 4 mps 753 mmHg 86%
15:00 +5°C° 0 mm 4 mps 753 mmHg 86%
16:00 +6°C° 0 mm 4 mps 753 mmHg 86%
17:00 +7°C° 0 mm 3 mps 753 mmHg 86%
18:00 +5°C° 0 mm 3 mps 753 mmHg 88%
19:00 +5°C° 0 mm 3 mps 753 mmHg 91%
20:00 +4°C° 0 mm 3 mps 753 mmHg 93%
21:00 +4°C° 0 mm 4 mps 753 mmHg 93%
22:00 +5°C° 0 mm 4 mps 753 mmHg 93%
23:00 +5°C° 0 mm 5 mps 753 mmHg 93%

3 Noviembre, Martes

Tiempo Temperatura Precipitaciones Viento Presión Humedad
00:00 +4°C° 0 mm 4 mps 753 mmHg 94%
01:00 +4°C° 0 mm 3 mps 754 mmHg 95%
02:00 +4°C° 0 mm 3 mps 754 mmHg 96%
03:00 +4°C° 0 mm 3 mps 754 mmHg 96%
04:00 +4°C° 0 mm 3 mps 754 mmHg 96%
05:00 +4°C° 0 mm 3 mps 754 mmHg 97%
06:00 +4°C° 0 mm 3 mps 754 mmHg 97%
07:00 +4°C° 0 mm 3 mps 754 mmHg 97%
08:00 +5°C° 0 mm 3 mps 754 mmHg 97%
09:00 +7°C° 0 mm 3 mps 754 mmHg 95%
10:00 +7°C° 0 mm 3 mps 754 mmHg 93%
11:00 +8°C° 0 mm 3 mps 755 mmHg 91%
12:00 +9°C° 0 mm 3 mps 755 mmHg 91%
13:00 +8°C° 0 mm 4 mps 755 mmHg 90%
14:00 +10°C° 0 mm 4 mps 755 mmHg 89%
15:00 +8°C° 0 mm 4 mps 755 mmHg 89%
16:00 +8°C° 0 mm 4 mps 755 mmHg 88%
17:00 +8°C° 0 mm 4 mps 755 mmHg 88%
18:00 +8°C° 0 mm 3 mps 755 mmHg 90%
19:00 +8°C° 0 mm 3 mps 755 mmHg 92%
20:00 +7°C° 0 mm 2 mps 756 mmHg 93%
21:00 +7°C° 0 mm 2 mps 756 mmHg 94%
22:00 +7°C° 0 mm 3 mps 756 mmHg 94%
23:00 +7°C° 0 mm 3 mps 756 mmHg 94%
Mostrar más

Necesitamos Su Consentimiento

Meteoprog y nuestros Proveedores de Servicios pueden almacenar y acceder a sus datos personales como cookies, identificadores de dispositivo u otras tecnologías similares de su dispositivo y procesar dichos datos para personalizar contenido y anuncios, además de ofrecer funciones de redes sociales y analizar el tráfico.

  • Almacenar y/o acceder a información en su dispositivo

    Se puede almacenar o acceder a cookies, identificadores de dispositivo u otra información de su dispositivo para los fines anteriormente indicados.

  • Anuncios y contenido personalizados, medición de anuncios y contenido, percepciones del público, y desarrollo de productos

    Los anuncios y el contenido pueden personalizarse en base a su perfil. Se pueden añadir más datos para personalizar mejor los anuncios y contenidos. Se puede medir el rendimiento de los anuncios y contenidos. Se puede obtener la percepción sobre el público que ha visto los anuncios y contenidos. Dichos datos pueden usarse para desarrollar o mejorar la experiencia del usuario, sistemas y software.

Al hacer clic en ‘Estoy De Acuerdo’ usted permitirá el uso de las cookies, identificadores de dispositivo, balizas web u otras tecnologías similares indicadas. Su configuración puede cambiarse desde el navegador de su dispositivo.

Para ciertos fines, los intereses legítimos pueden ser considerados por encima del consentimiento. Puede leer más sobre ello en nuestra Política de Privacidad y Cookies.